Theta_e
288 287 287 287 287 287 287 287 287 287 288 288 289 290 291 292 290 289 290 290 289 291 293 292 292 294 295 292 291 293 292 292 288 289 289 292 294 296 298 298 298 297 297
288 287 287 287 287 286 287 287 288 287 288 288 288 288 291 293 293 292 290 291 291 291 292 291 293 294 294 295 290 292 293 292 290 284 286 289 289 293 295 296 298 299 297
288 286 286 286 286 286 287 288 288 287 287 288 288 288 289 292 294 291 292 291 289 290 289 289 291 293 293 294 294 294 293 292 294 292 289 289 288 289 291 294 296 294 297
287 286 286 286 287 287 287 288 288 287 287 287 288 288 291 293 293 289 289 290 288 288 289 290 292 293 293 296 295 295 292 292 293 292 291 286 286 288 288 288 288 291 293
287 287 286 286 287 288 288 288 288 287 287 287 288 288 289 293 293 289 287 287 286 286 287 289 291 295 296 298 295 293 294 293 292 291 290 289 289 288 286 288 287 288 290
287 287 287 287 287 287 288 288 288 287 287 287 287 287 288 292 298 296 290 286 286 285 285 286 288 294 291 295 296 297 296 293 292 292 291 290 288 287 287 287 287 288 287
287 287 288 287 286 286 287 288 287 287 286 286 286 286 287 288 300 297 295 287 286 285 285 285 288 290 291 287 291 292 292 295 296 291 289 289 286 286 286 285 285 286 287
287 287 288 287 286 286 286 286 286 286 286 286 286 286 286 289 299 298 295 287 285 285 285 285 289 290 292 287 285 284 284 286 291 292 291 288 287 286 288 288 286 286 286
287 287 288 287 285 285 284 285 286 285 285 286 286 286 286 286 297 297 292 287 287 285 286 286 290 291 296 294 285 286 283 282 290 294 294 294 293 293 292 285 286 286 285
286 287 288 287 286 284 284 284 285 285 286 287 286 285 290 285 294 296 293 288 285 285 285 286 292 294 296 296 286 288 285 285 282 281 282 284 288 287 292 284 285 285 285
288 288 288 287 286 285 283 284 284 284 285 284 285 285 285 287 288 296 296 288 287 285 285 285 287 294 294 294 294 291 288 287 285 281 279 279 280 281 281 283 286 286 284
288 288 286 286 287 287 284 284 284 283 283 283 284 284 285 285 291 294 296 295 294 285 284 285 286 293 293 293 291 293 292 289 285 283 282 281 278 278 281 280 282 286 287
287 286 285 286 287 286 284 284 284 283 283 284 284 283 284 286 285 293 294 295 294 287 287 291 292 292 292 289 292 291 289 285 284 284 284 284 285 285 282 283 283 283 286
286 286 286 285 287 286 286 286 285 284 283 284 284 284 284 285 285 286 286 285 290 287 287 285 289 289 290 289 285 285 284 284 283 282 284 285 287 287 284 281 281 282 281
286 286 285 286 285 285 286 285 287 287 286 285 286 285 284 285 288 293 291 287 286 288 285 282 281 281 281 282 283 283 283 283 281 281 281 283 286 287 285 283 282 281 281
286 286 286 286 285 285 284 285 291 293 295 295 296 292 289 294 295 294 293 292 292 291 282 280 279 280 280 280 280 281 282 284 282 281 281 281 284 285 285 286 286 284 283
285 286 286 287 286 284 284 283 283 287 292 293 294 294 295 295 294 293 293 291 291 287 280 279 279 280 280 280 280 280 280 282 283 282 281 281 282 284 285 286 287 286 286
286 291 285 284 284 284 284 284 283 283 282 283 289 292 293 294 293 293 292 287 282 283 280 279 279 280 280 280 280 280 281 282 282 282 282 282 282 282 283 283 285 286 286
286 286 286 285 284 286 285 284 284 283 283 283 284 287 290 292 292 291 290 282 281 281 281 280 281 281 281 280 281 281 281 281 282 281 281 281 282 281 281 282 282 286 287
286 290 290 285 285 284 284 284 283 282 282 282 282 282 284 285 283 282 283 282 282 282 281 281 282 282 282 281 281 281 281 281 280 280 280 281 281 281 281 282 282 282 282
286 286 289 285 284 284 284 283 283 282 282 281 282 284 292 282 282 282 282 282 282 282 282 282 282 283 284 283 282 281 281 281 280 280 281 281 281 281 282 282 282 282 282
287 285 285 284 285 284 284 283 282 282 282 282 282 284 289 282 282 282 282 282 282 282 282 282 282 283 283 284 284 283 281 281 281 281 281 281 282 282 283 282 281 281 282
287 285 284 284 284 285 282 282 281 282 282 282 282 283 283 282 282 282 282 282 282 282 282 282 282 282 284 284 286 285 283 283 283 283 282 281 282 282 283 281 281 280 281
286 283 283 282 284 281 281 280 280 282 282 282 282 282 281 281 281 282 282 282 282 282 282 282 282 282 283 284 285 287 286 287 286 284 283 281 281 282 281 281 280 280 280
286 284 282 282 282 281 281 281 281 281 282 282 282 282 282 282 282 282 282 282 282 282 282 282 281 282 283 284 284 286 288 289 288 288 282 281 281 281 281 281 281 280 280
286 286 285 285 285 284 284 283 283 283 283 283 283 283 283 283 283 284 283 282 282 282 282 282 282 283 283 284 285 288 289 290 289 288 282 281 281 281 281 281 281 280 280
Wind_Speed
6 5 6 6 6 6 5 6 6 6 6 7 8 8 8 7 5 6 7 8 7 7 7 7 6 6 4 2 2 1 1 1 2 2 1 1 1 4 7 5 4 4 4
6 5 6 6 6 6 6 6 6 7 6 6 6 7 9 9 6 5 7 10 10 10 10 10 9 6 5 4 2 3 3 2 2 3 2 2 2 2 3 4 4 3 4
6 6 6 6 6 6 6 6 6 6 7 7 6 7 8 10 7 4 2 6 6 7 7 8 10 9 7 4 4 3 2 2 3 3 2 2 2 1 3 2 2 5 2
5 6 6 6 6 6 6 6 6 6 6 7 7 6 6 9 4 6 6 6 6 6 6 6 9 10 10 5 7 4 3 3 2 1 1 1 1 2 1 2 3 2 3
5 6 6 6 6 6 7 7 6 6 5 6 8 9 9 8 3 4 5 5 6 7 7 6 8 14 20 15 6 8 6 3 2 2 2 1 1 1 2 2 2 3 3
5 6 6 6 5 6 6 7 6 6 6 5 6 7 9 8 14 14 7 5 5 5 6 7 5 9 11 17 16 11 8 4 5 2 2 2 1 1 2 1 1 1 4
5 6 6 6 6 5 6 6 7 7 5 6 6 6 8 10 16 14 11 4 4 4 5 6 6 5 5 4 10 11 10 11 7 2 1 1 2 2 1 1 3 3 4
5 6 6 5 6 6 6 6 6 5 6 5 6 6 6 8 19 14 12 5 5 5 4 5 5 7 7 4 4 6 6 5 4 1 1 3 4 4 3 3 3 3 3
6 6 6 5 5 6 6 6 5 5 5 5 4 7 6 7 18 16 9 5 4 6 6 7 6 6 11 5 5 6 6 5 7 9 7 6 6 5 5 1 3 2 2
5 6 5 4 4 5 4 5 4 3 4 4 6 6 10 7 14 15 9 3 4 4 6 6 12 10 14 12 4 1 3 3 4 6 5 6 6 6 7 0 3 3 4
4 6 5 4 3 1 2 3 4 4 5 5 6 6 6 7 8 16 15 3 2 3 4 4 5 12 11 11 10 1 1 1 6 4 3 3 3 4 3 3 4 4 3
4 4 4 3 3 2 2 3 3 5 5 5 5 5 4 6 12 13 15 15 12 4 5 4 5 11 11 11 7 9 10 7 4 4 4 4 4 3 4 4 5 6 6
2 4 2 3 2 3 3 4 2 3 3 4 4 4 5 6 5 12 14 15 14 5 4 10 13 13 13 9 10 9 6 3 2 4 3 3 5 5 5 4 4 5 8
3 3 3 3 4 3 3 1 2 3 3 3 4 4 4 5 5 4 3 4 9 6 8 6 10 11 12 10 7 6 4 3 1 2 3 3 4 4 4 2 2 2 3
3 4 2 1 3 4 4 2 2 3 4 3 4 4 4 5 5 11 9 4 4 6 6 3 3 3 4 4 5 5 5 4 4 3 2 3 4 4 5 3 3 3 3
3 3 3 1 2 2 3 5 6 6 9 9 5 3 3 8 11 12 13 10 11 11 3 2 3 4 4 4 4 4 3 7 4 4 3 3 3 4 5 4 3 4 5
3 4 4 3 2 2 2 2 4 7 8 7 7 7 10 10 10 11 11 9 10 8 3 3 3 4 4 4 4 4 4 5 5 4 4 4 3 3 6 5 5 5 6
3 7 3 3 3 3 3 3 2 2 3 4 6 9 8 10 10 10 10 5 3 4 1 3 4 4 4 5 5 4 5 5 4 4 4 4 4 3 4 4 5 5 5
2 3 3 3 3 4 3 3 3 2 2 3 3 6 6 8 8 8 9 2 2 4 3 4 4 4 4 4 5 5 5 5 5 4 4 4 5 3 5 5 5 11 11
2 5 4 2 3 3 3 3 3 3 3 3 3 3 4 5 4 4 3 2 3 3 3 4 4 4 4 4 5 5 5 5 5 4 5 4 4 4 5 6 6 6 6
2 2 5 2 2 3 3 3 3 3 3 4 4 4 10 3 4 3 4 4 4 4 4 4 4 4 4 5 5 5 5 5 5 5 5 5 5 5 5 6 6 6 6
2 3 2 2 1 2 3 2 2 2 3 3 3 4 12 4 4 4 4 4 5 4 4 4 4 4 4 4 5 6 6 6 6 5 6 6 6 5 5 5 6 5 6
3 2 0 1 1 2 2 3 3 3 3 3 4 4 4 4 4 4 4 5 5 5 5 4 4 5 4 4 3 5 6 7 7 6 6 6 6 5 5 5 5 6 5
4 3 2 1 0 2 2 3 3 4 4 3 3 4 4 5 5 6 5 6 6 6 5 5 4 6 6 5 4 5 6 7 6 6 7 5 5 7 5 4 5 6 5
4 4 3 2 1 1 0 1 2 3 3 4 5 5 6 5 5 6 6 6 6 6 7 6 4 6 7 9 8 9 12 15 11 10 4 5 5 7 5 4 5 5 5
4 4 3 2 2 1 1 1 2 2 3 4 3 4 5 6 6 7 6 6 6 6 7 5 6 9 9 7 9 13 14 15 12 14 5 4 5 5 4 5 6 4 5
Wind_Direction
346 329 333 341 342 339 347 334 336 331 343 344 344 346 349 338 3 22 9 12 -0 1 0 3 357 349 332 316 320 303 211 238 223 301 336 292 254 349 331 339 356 328 342
337 348 343 348 343 350 348 339 338 339 339 338 341 344 347 347 337 31 13 25 11 7 6 1 356 346 325 343 249 265 241 190 186 237 266 296 248 300 280 308 325 306 325
347 356 351 348 348 344 342 339 342 337 339 339 349 344 346 344 333 1 30 10 11 5 1 357 353 10 343 313 303 279 254 249 211 200 244 217 252 292 316 311 254 277 283
349 353 346 341 338 337 334 344 344 335 337 340 338 329 334 332 334 20 3 5 4 353 352 350 349 8 344 2 326 240 229 254 272 265 330 359 339 328 304 278 299 318 302
355 349 338 335 342 341 343 341 339 340 320 332 339 346 338 336 61 60 22 15 7 355 352 353 359 21 16 19 40 32 14 261 247 236 239 207 213 330 347 321 289 299 302
355 339 336 342 344 347 340 338 340 339 333 321 329 333 337 344 40 44 45 18 8 359 346 343 336 17 16 23 29 35 16 62 32 341 28 292 13 283 247 254 271 294 295
348 334 335 343 350 345 338 343 340 337 340 340 338 331 335 335 15 40 43 16 17 354 346 335 342 346 12 7 26 37 28 18 50 58 312 258 241 242 231 281 228 219 243
354 332 337 347 341 353 348 345 339 334 344 338 344 350 343 343 358 23 30 9 4 348 335 333 317 331 313 40 17 14 0 333 335 25 257 264 232 233 220 224 223 243 275
343 329 328 338 349 8 353 343 340 346 345 347 347 355 357 343 354 14 34 358 352 334 330 325 326 309 5 51 41 358 347 328 324 322 320 321 327 328 326 41 285 253 255
323 311 314 329 9 14 357 344 334 344 342 354 351 355 358 335 342 15 35 349 348 333 328 322 340 349 19 16 101 17 334 312 324 349 342 328 309 300 315 117 294 286 282
301 309 327 335 333 43 349 347 2 5 2 3 348 337 329 328 325 6 8 348 278 330 321 316 316 1 11 5 16 297 339 136 345 345 324 320 344 328 300 250 232 245 258
311 314 320 319 315 348 343 346 357 4 6 346 330 324 318 311 337 346 6 16 13 359 333 316 313 9 12 7 5 22 24 25 356 354 350 339 329 316 308 298 251 238 247
322 330 300 314 338 349 350 332 341 344 353 338 335 330 330 323 313 334 4 17 14 15 350 5 7 6 5 356 5 15 14 336 342 3 315 303 307 294 288 294 276 244 260
311 319 308 350 348 348 333 0 334 336 340 319 330 322 309 304 310 319 350 355 2 7 10 1 12 8 3 356 352 342 332 319 291 283 298 289 293 317 309 280 274 279 253
289 296 310 329 328 333 329 286 314 287 226 267 274 276 308 327 331 8 8 1 351 13 12 346 338 329 336 339 341 328 330 335 336 310 279 294 303 310 315 291 263 274 247
293 299 288 305 317 316 329 322 331 346 345 359 346 353 308 326 353 9 12 13 13 13 8 344 324 332 330 328 330 319 314 335 313 313 301 288 298 313 301 306 273 269 279
283 295 296 312 314 316 326 336 329 331 341 358 3 346 353 351 359 12 14 15 14 18 7 330 332 329 316 315 312 309 300 311 302 309 308 305 298 290 323 311 311 310 306
302 301 271 297 294 289 283 284 277 304 326 322 333 338 342 353 0 11 13 9 348 354 303 319 321 320 317 316 316 309 312 310 306 316 312 308 309 302 299 288 293 293 288
298 287 272 270 289 284 288 293 284 295 301 293 310 334 339 335 355 8 17 42 326 316 329 324 312 315 315 309 304 308 304 311 327 309 304 307 306 296 295 282 281 299 300
241 310 307 270 290 302 294 296 309 313 315 314 313 298 302 357 2 341 337 328 329 311 311 313 314 309 308 310 311 310 314 315 316 310 310 298 295 289 292 294 293 294 291
193 271 284 298 274 267 267 286 289 295 304 317 308 309 354 26 340 336 330 335 325 311 313 315 310 310 309 312 311 310 306 304 298 297 298 298 295 303 297 290 292 293 291
173 250 266 247 262 308 308 316 319 322 335 335 330 325 0 16 352 341 337 325 316 305 303 308 308 299 295 304 318 318 315 310 308 306 304 301 300 299 300 299 306 309 308
157 196 163 23 61 51 24 8 6 12 4 360 350 346 351 351 340 333 328 315 318 316 318 321 310 309 310 299 318 313 311 311 304 299 297 300 306 304 307 307 312 318 321
152 164 164 131 85 59 20 356 351 358 355 353 348 354 343 337 330 323 323 316 320 320 315 314 315 316 318 314 308 322 314 310 300 289 295 293 305 314 310 319 319 314 308
160 154 151 158 156 160 315 337 327 328 333 358 354 349 343 330 324 325 321 320 319 320 318 321 312 317 327 326 321 326 330 335 332 330 321 317 318 325 318 319 322 326 330
169 169 166 182 193 190 199 332 358 351 336 348 348 355 345 335 337 338 328 321 323 318 320 318 318 332 332 321 316 329 338 343 347 352 344 333 333 333 329 337 335 329 334